| time (UTC) | temp F | wind direction | speed MPH | gust MPH | rain 1hr in | rain 24hr in | rain mn in | humidity % | barometer mb |
| 20260507165502 | 55 | 321 | 2.0 | 8.0 | 0.00 | 0.00 | 0.00 | 37 | 1011.7 |
| 20260507165003 | 54 | 34 | 1.0 | 12.0 | 0.00 | 0.00 | 0.00 | 35 | 1011.8 |
| 20260507164503 | 55 | 5 | 3.0 | 12.0 | 0.00 | 0.00 | 0.00 | 39 | 1011.9 |
| 20260507164005 | 54 | 32 | 2.0 | 8.0 | 0.00 | 0.00 | 0.00 | 37 | 1011.8 |
| 20260507163504 | 54 | 321 | 3.0 | 8.0 | 0.00 | 0.00 | 0.00 | 40 | 1011.9 |
| 20260507163004 | 54 | 298 | 2.0 | 10.0 | 0.00 | 0.00 | 0.00 | 37 | 1011.9 |
| 20260507162503 | 54 | 13 | 2.0 | 10.0 | 0.00 | 0.00 | 0.00 | 40 | 1011.9 |
| 20260507162002 | 54 | 344 | 3.0 | 9.0 | 0.00 | 0.00 | 0.00 | 40 | 1011.9 |
| 20260507161504 | 55 | 315 | 2.0 | 11.0 | 0.00 | 0.00 | 0.00 | 37 | 1012.0 |
| 20260507161003 | 56 | 37 | 4.0 | 11.0 | 0.00 | 0.00 | 0.00 | 37 | 1012.1 |
| 20260507160503 | 55 | 352 | 4.0 | 10.0 | 0.00 | 0.00 | 0.00 | 38 | 1012.2 |
| 20260507160007 | 55 | 38 | 1.0 | 10.0 | 0.00 | 0.00 | 0.00 | 40 | 1012.1 |
| 20260507155502 | 55 | 16 | 3.0 | 10.0 | 0.00 | 0.00 | 0.00 | 42 | 1012.1 |
| 20260507155004 | 54 | 344 | 2.0 | 8.0 | 0.00 | 0.00 | 0.00 | 43 | 1012.0 |
| 20260507154504 | 54 | 321 | 2.0 | 6.0 | 0.00 | 0.00 | 0.00 | 42 | 1012.1 |
| 20260507154004 | 54 | 277 | 0.0 | 5.0 | 0.00 | 0.00 | 0.00 | 43 | 1012.1 |
| 20260507153504 | 53 | 39 | 2.0 | 7.0 | 0.00 | 0.00 | 0.00 | 44 | 1012.1 |
| 20260507153006 | 53 | 306 | 1.0 | 8.0 | 0.00 | 0.00 | 0.00 | 44 | 1012.1 |
| 20260507152504 | 53 | 331 | 1.0 | 11.0 | 0.00 | 0.00 | 0.00 | 45 | 1012.1 |
| 20260507152007 | 52 | 24 | 2.0 | 11.0 | 0.00 | 0.00 | 0.00 | 45 | 1012.1 |
| 20260507151506 | 52 | 40 | 1.0 | 8.0 | 0.00 | 0.00 | 0.00 | 48 | 1012.1 |
| 20260507151003 | 51 | 306 | 0.0 | 6.0 | 0.00 | 0.00 | 0.00 | 49 | 1012.2 |
| 20260507150502 | 51 | 266 | 1.0 | 11.0 | 0.00 | 0.00 | 0.00 | 49 | 1012.1 |
| 20260507150004 | 50 | 342 | 1.0 | 11.0 | 0.00 | 0.00 | 0.00 | 51 | 1012.2 |
| 20260507145502 | 49 | 19 | 2.0 | 4.0 | 0.00 | 0.00 | 0.00 | 51 | 1012.2 |
| 20260507145003 | 49 | 228 | 0.0 | 4.0 | 0.00 | 0.00 | 0.00 | 55 | 1012.2 |
| 20260507144510 | 48 | 159 | 0.0 | 5.0 | 0.00 | 0.00 | 0.00 | 56 | 1012.3 |
| 20260507144004 | 47 | 320 | 2.0 | 5.0 | 0.00 | 0.00 | 0.00 | 59 | 1012.3 |
| 20260507143504 | 46 | 298 | 1.0 | 5.0 | 0.00 | 0.00 | 0.00 | 61 | 1012.4 |
| 20260507143005 | 45 | 335 | 1.0 | 5.0 | 0.00 | 0.00 | 0.00 | 62 | 1012.4 |
| 20260507142504 | 44 | 327 | 1.0 | 9.0 | 0.00 | 0.00 | 0.00 | 64 | 1012.5 |
| 20260507142005 | 43 | 326 | 1.0 | 9.0 | 0.00 | 0.00 | 0.00 | 65 | 1012.6 |
| 20260507141504 | 42 | 352 | 1.0 | 5.0 | 0.00 | 0.00 | 0.00 | 71 | 1012.7 |
| 20260507141003 | 42 | 308 | 2.0 | 5.0 | 0.00 | 0.00 | 0.00 | 72 | 1012.7 |
| 20260507140506 | 41 | 325 | 0.0 | 4.0 | 0.00 | 0.00 | 0.00 | 76 | 1012.8 |
| 20260507140007 | 40 | 241 | 0.0 | 4.0 | 0.00 | 0.00 | 0.00 | 77 | 1012.8 |
| 20260507135507 | 39 | 238 | 1.0 | 3.0 | 0.00 | 0.00 | 0.00 | 79 | 1012.9 |
| 20260507135003 | 38 | 69 | 0.0 | 2.0 | 0.00 | 0.00 | 0.00 | 81 | 1012.9 |
| 20260507134503 | 37 | 115 | 0.0 | 2.0 | 0.00 | 0.00 | 0.00 | 82 | 1012.9 |
| 20260507134002 | 37 | 123 | 0.0 | 1.0 | 0.00 | 0.00 | 0.00 | 83 | 1013.0 |
| 20260507133504 | 36 | 123 | 0.0 | 1.0 | 0.00 | 0.00 | 0.00 | 83 | 1012.9 |
| 20260507133005 | 36 | 123 | 0.0 | 2.0 | 0.00 | 0.00 | 0.00 | 84 | 1013.0 |
| 20260507132506 | 35 | 123 | 1.0 | 2.0 | 0.00 | 0.00 | 0.00 | 84 | 1013.1 |
| 20260507132002 | 35 | 146 | 0.0 | 2.0 | 0.00 | 0.00 | 0.00 | 84 | 1013.2 |
| 20260507131510 | 34 | 146 | 0.0 | 2.0 | 0.00 | 0.00 | 0.00 | 84 | 1013.1 |
| 20260507131003 | 34 | 142 | 0.0 | 2.0 | 0.00 | 0.00 | 0.00 | 84 | 1013.1 |
| 20260507130504 | 33 | 154 | 0.0 | 2.0 | 0.00 | 0.00 | 0.00 | 84 | 1013.0 |
| 20260507130009 | 33 | 227 | 0.0 | 2.0 | 0.00 | 0.00 | 0.00 | 84 | 1013.1 |
| 20260507125502 | 33 | 302 | 0.0 | 2.0 | 0.00 | 0.00 | 0.00 | 85 | 1013.2 |
| 20260507125005 | 32 | 302 | 0.0 | 2.0 | 0.00 | 0.00 | 0.00 | 84 | 1013.2 |
| 20260507124510 | 32 | 344 | 0.0 | 2.0 | 0.00 | 0.00 | 0.00 | 84 | 1013.3 |
| 20260507124007 | 32 | 336 | 0.0 | 2.0 | 0.00 | 0.00 | 0.00 | 84 | 1013.3 |
| 20260507123503 | 31 | 336 | 0.0 | 0.0 | 0.00 | 0.00 | 0.00 | 84 | 1013.3 |
| 20260507123008 | 31 | 336 | 0.0 | 0.0 | 0.00 | 0.00 | 0.00 | 83 | 1013.3 |
| 20260507122501 | 31 | 336 | 0.0 | 0.0 | 0.00 | 0.00 | 0.00 | 83 | 1013.2 |
| 20260507122007 | 30 | 336 | 0.0 | 1.0 | 0.00 | 0.00 | 0.00 | 83 | 1013.2 |
| 20260507121510 | 30 | 336 | 0.0 | 1.0 | 0.00 | 0.00 | 0.00 | 83 | 1013.2 |
| 20260507121005 | 30 | 336 | 0.0 | 0.0 | 0.00 | 0.00 | 0.00 | 82 | 1013.1 |
| 20260507120502 | 30 | 336 | 0.0 | 0.0 | 0.00 | 0.00 | 0.00 | 82 | 1013.0 |
| 20260507120022 | 29 | 336 | 0.0 | 0.0 | 0.00 | 0.00 | 0.00 | 81 | 1013.0 |
| 20260507115504 | 29 | 336 | 0.0 | 0.0 | 0.00 | 0.00 | 0.00 | 81 | 1013.1 |
| 20260507115005 | 29 | 336 | 0.0 | 0.0 | 0.00 | 0.00 | 0.00 | 81 | 1013.1 |
| 20260507114511 | 29 | 336 | 0.0 | 0.0 | 0.00 | 0.00 | 0.00 | 80 | 1013.1 |
| 20260507114007 | 28 | 336 | 0.0 | 0.0 | 0.00 | 0.00 | 0.00 | 80 | 1013.1 |
| 20260507113506 | 28 | 336 | 0.0 | 0.0 | 0.00 | 0.00 | 0.00 | 80 | 1013.1 |
| 20260507113011 | 28 | 336 | 0.0 | 0.0 | 0.00 | 0.00 | 0.00 | 80 | 1013.0 |
| 20260507112508 | 28 | 336 | 0.0 | 0.0 | 0.00 | 0.00 | 0.00 | 79 | 1013.1 |
| 20260507112007 | 28 | 336 | 0.0 | 0.0 | 0.00 | 0.00 | 0.00 | 79 | 1013.0 |
| 20260507111510 | 28 | 336 | 0.0 | 0.0 | 0.00 | 0.00 | 0.00 | 79 | 1013.0 |
| 20260507111007 | 28 | 336 | 0.0 | 0.0 | 0.00 | 0.00 | 0.00 | 78 | 1013.0 |
| 20260507110505 | 28 | 336 | 0.0 | 0.0 | 0.00 | 0.00 | 0.00 | 78 | 1012.9 |
| 20260507110015 | 28 | 336 | 0.0 | 0.0 | 0.00 | 0.00 | 0.00 | 78 | 1012.9 |
| 20260507105504 | 28 | 336 | 0.0 | 0.0 | 0.00 | 0.00 | 0.00 | 78 | 1012.9 |
| 20260507105006 | 28 | 336 | 0.0 | 0.0 | 0.00 | 0.00 | 0.00 | 78 | 1012.9 |
| 20260507104513 | 28 | 336 | 0.0 | 0.0 | 0.00 | 0.00 | 0.00 | 78 | 1013.0 |
| 20260507104007 | 28 | 336 | 0.0 | 0.0 | 0.00 | 0.00 | 0.00 | 78 | 1013.0 |
| 20260507103508 | 28 | 336 | 0.0 | 0.0 | 0.00 | 0.00 | 0.00 | 77 | 1013.0 |
| 20260507103013 | 28 | 336 | 0.0 | 0.0 | 0.00 | 0.00 | 0.00 | 77 | 1013.0 |
| 20260507102510 | 28 | 336 | 0.0 | 0.0 | 0.00 | 0.00 | 0.00 | 77 | 1013.0 |
| 20260507102007 | 28 | 336 | 0.0 | 0.0 | 0.00 | 0.00 | 0.00 | 77 | 1013.0 |
| 20260507101514 | 28 | 336 | 0.0 | 0.0 | 0.00 | 0.00 | 0.00 | 77 | 1013.0 |
| 20260507101006 | 28 | 336 | 0.0 | 0.0 | 0.00 | 0.00 | 0.00 | 76 | 1013.1 |
| 20260507100505 | 28 | 336 | 0.0 | 0.0 | 0.00 | 0.00 | 0.00 | 76 | 1013.1 |
| 20260507100010 | 28 | 336 | 0.0 | 0.0 | 0.00 | 0.00 | 0.00 | 76 | 1013.2 |
| 20260507095508 | 28 | 336 | 0.0 | 0.0 | 0.00 | 0.00 | 0.00 | 76 | 1013.2 |
| 20260507095007 | 28 | 336 | 0.0 | 0.0 | 0.00 | 0.00 | 0.00 | 76 | 1013.2 |
| 20260507094516 | 28 | 336 | 0.0 | 0.0 | 0.00 | 0.00 | 0.00 | 76 | 1013.2 |
| 20260507094006 | 28 | 336 | 0.0 | 0.0 | 0.00 | 0.00 | 0.00 | 76 | 1013.2 |
| 20260507093508 | 28 | 336 | 0.0 | 0.0 | 0.00 | 0.00 | 0.00 | 75 | 1013.3 |
| 20260507093018 | 28 | 336 | 0.0 | 0.0 | 0.00 | 0.00 | 0.00 | 75 | 1013.3 |
| 20260507092507 | 28 | 336 | 0.0 | 0.0 | 0.00 | 0.00 | 0.00 | 75 | 1013.3 |
| 20260507092005 | 28 | 336 | 0.0 | 0.0 | 0.00 | 0.00 | 0.00 | 75 | 1013.3 |
| 20260507091518 | 29 | 336 | 0.0 | 0.0 | 0.00 | 0.00 | 0.00 | 75 | 1013.3 |
| 20260507091011 | 29 | 336 | 0.0 | 0.0 | 0.00 | 0.00 | 0.00 | 75 | 1013.3 |
| 20260507090506 | 29 | 336 | 0.0 | 0.0 | 0.00 | 0.00 | 0.00 | 75 | 1013.3 |
| 20260507090022 | 29 | 336 | 0.0 | 0.0 | 0.00 | 0.00 | 0.00 | 75 | 1013.3 |
| 20260507085506 | 29 | 336 | 0.0 | 0.0 | 0.00 | 0.00 | 0.00 | 74 | 1013.3 |
| 20260507085008 | 29 | 336 | 0.0 | 0.0 | 0.00 | 0.00 | 0.00 | 74 | 1013.4 |
| 20260507084518 | 29 | 336 | 0.0 | 0.0 | 0.00 | 0.00 | 0.00 | 74 | 1013.4 |
| 20260507084006 | 29 | 336 | 0.0 | 0.0 | 0.00 | 0.00 | 0.00 | 74 | 1013.4 |
| 20260507083506 | 29 | 336 | 0.0 | 0.0 | 0.00 | 0.00 | 0.00 | 74 | 1013.5 |
| 20260507083016 | 29 | 336 | 0.0 | 0.0 | 0.00 | 0.00 | 0.00 | 74 | 1013.5 |
| 20260507082506 | 29 | 336 | 0.0 | 0.0 | 0.00 | 0.00 | 0.00 | 74 | 1013.6 |
| 20260507082003 | 30 | 336 | 0.0 | 0.0 | 0.00 | 0.00 | 0.00 | 74 | 1013.6 |
| 20260507081505 | 30 | 336 | 0.0 | 0.0 | 0.00 | 0.00 | 0.00 | 74 | 1013.7 |
| 20260507081003 | 30 | 336 | 0.0 | 0.0 | 0.00 | 0.00 | 0.00 | 74 | 1013.7 |
| 20260507080503 | 30 | 336 | 0.0 | 0.0 | 0.00 | 0.00 | 0.00 | 74 | 1013.7 |
| 20260507080008 | 30 | 336 | 0.0 | 0.0 | 0.00 | 0.00 | 0.00 | 74 | 1013.6 |
| 20260507075507 | 30 | 336 | 0.0 | 0.0 | 0.00 | 0.00 | 0.00 | 73 | 1013.6 |
| 20260507075004 | 30 | 336 | 0.0 | 0.0 | 0.00 | 0.00 | 0.00 | 73 | 1013.7 |
| 20260507074507 | 30 | 336 | 0.0 | 0.0 | 0.00 | 0.00 | 0.00 | 73 | 1013.7 |
| 20260507074004 | 30 | 336 | 0.0 | 0.0 | 0.00 | 0.00 | 0.00 | 73 | 1013.8 |
| 20260507073508 | 30 | 336 | 0.0 | 0.0 | 0.00 | 0.00 | 0.00 | 73 | 1013.9 |
| 20260507073004 | 30 | 336 | 0.0 | 0.0 | 0.00 | 0.00 | 0.00 | 73 | 1013.9 |
| 20260507072504 | 30 | 336 | 0.0 | 0.0 | 0.00 | 0.00 | 0.00 | 73 | 1014.0 |
| 20260507072007 | 30 | 336 | 0.0 | 0.0 | 0.00 | 0.00 | 0.00 | 73 | 1014.0 |
| 20260507071522 | 30 | 336 | 0.0 | 0.0 | 0.00 | 0.00 | 0.00 | 73 | 1014.1 |
| 20260507071003 | 30 | 336 | 0.0 | 0.0 | 0.00 | 0.00 | 0.00 | 73 | 1014.1 |
| 20260507070503 | 30 | 336 | 0.0 | 0.0 | 0.00 | 0.00 | 0.00 | 73 | 1014.2 |
| 20260507070009 | 30 | 336 | 0.0 | 0.0 | 0.00 | 0.00 | 0.00 | 73 | 1014.2 |
| 20260507065505 | 30 | 336 | 0.0 | 0.0 | 0.00 | 0.00 | 0.00 | 72 | 1014.3 |
| 20260507065004 | 30 | 336 | 0.0 | 0.0 | 0.00 | 0.00 | 0.00 | 72 | 1014.3 |
| 20260507064508 | 30 | 336 | 0.0 | 0.0 | 0.00 | 0.00 | 0.00 | 72 | 1014.4 |
| 20260507064004 | 30 | 336 | 0.0 | 0.0 | 0.00 | 0.00 | 0.00 | 71 | 1014.4 |
| 20260507063504 | 30 | 336 | 0.0 | 0.0 | 0.00 | 0.00 | 0.00 | 71 | 1014.3 |
| 20260507063012 | 30 | 336 | 0.0 | 0.0 | 0.00 | 0.00 | 0.00 | 71 | 1014.4 |
| 20260507062507 | 30 | 336 | 0.0 | 0.0 | 0.00 | 0.00 | 0.00 | 70 | 1014.4 |
| 20260507062007 | 30 | 336 | 0.0 | 0.0 | 0.00 | 0.00 | 0.00 | 70 | 1014.3 |
| 20260507061505 | 30 | 336 | 0.0 | 0.0 | 0.00 | 0.00 | 0.00 | 70 | 1014.4 |
| 20260507061006 | 30 | 336 | 0.0 | 0.0 | 0.00 | 0.00 | 0.00 | 70 | 1014.5 |
| 20260507060508 | 30 | 336 | 0.0 | 0.0 | 0.00 | 0.00 | 0.00 | 70 | 1014.5 |
| 20260507060004 | 30 | 336 | 0.0 | 0.0 | 0.00 | 0.00 | 0.00 | 69 | 1014.6 |
| 20260507055504 | 30 | 336 | 0.0 | 0.0 | 0.00 | 0.00 | 0.00 | 69 | 1014.5 |
| 20260507055004 | 30 | 336 | 0.0 | 0.0 | 0.00 | 0.00 | 0.00 | 69 | 1014.5 |
| 20260507054510 | 30 | 336 | 0.0 | 0.0 | 0.00 | 0.00 | 0.00 | 69 | 1014.5 |
| 20260507054005 | 31 | 336 | 0.0 | 0.0 | 0.00 | 0.00 | 0.00 | 68 | 1014.6 |
| 20260507053504 | 31 | 336 | 0.0 | 0.0 | 0.00 | 0.00 | 0.00 | 68 | 1014.6 |
| 20260507053009 | 31 | 336 | 0.0 | 0.0 | 0.00 | 0.00 | 0.00 | 68 | 1014.6 |
| 20260507052504 | 31 | 336 | 0.0 | 0.0 | 0.00 | 0.00 | 0.00 | 68 | 1014.6 |
| 20260507052004 | 31 | 336 | 0.0 | 0.0 | 0.00 | 0.00 | 0.00 | 68 | 1014.7 |
| 20260507051516 | 31 | 336 | 0.0 | 0.0 | 0.00 | 0.00 | 0.00 | 68 | 1014.7 |
| 20260507051013 | 31 | 336 | 0.0 | 0.0 | 0.00 | 0.00 | 0.00 | 67 | 1014.7 |
| 20260507050504 | 32 | 336 | 0.0 | 0.0 | 0.00 | 0.00 | 0.00 | 67 | 1014.7 |
| 20260507050024 | 32 | 336 | 0.0 | 0.0 | 0.00 | 0.00 | 0.00 | 67 | 1014.7 |
| 20260507045507 | 32 | 336 | 0.0 | 0.0 | 0.00 | 0.00 | 0.00 | 67 | 1014.8 |
| 20260507045007 | 32 | 336 | 0.0 | 0.0 | 0.00 | 0.00 | 0.00 | 66 | 1014.7 |
| 20260507044509 | 32 | 336 | 0.0 | 0.0 | 0.00 | 0.00 | 0.00 | 67 | 1014.7 |
| 20260507044008 | 32 | 336 | 0.0 | 0.0 | 0.00 | 0.00 | 0.00 | 67 | 1014.8 |
| 20260507043508 | 33 | 336 | 0.0 | 0.0 | 0.00 | 0.00 | 0.00 | 67 | 1014.9 |
| 20260507043008 | 33 | 336 | 0.0 | 0.0 | 0.00 | 0.00 | 0.00 | 65 | 1014.9 |
| 20260507042504 | 33 | 336 | 0.0 | 0.0 | 0.00 | 0.00 | 0.00 | 65 | 1014.8 |
| 20260507042005 | 33 | 336 | 0.0 | 0.0 | 0.00 | 0.00 | 0.00 | 64 | 1014.8 |
| 20260507041510 | 33 | 336 | 0.0 | 0.0 | 0.00 | 0.00 | 0.00 | 64 | 1014.9 |
| 20260507041002 | 34 | 336 | 0.0 | 0.0 | 0.00 | 0.00 | 0.00 | 64 | 1015.0 |
| 20260507040506 | 34 | 336 | 0.0 | 0.0 | 0.00 | 0.00 | 0.00 | 63 | 1015.0 |
| 20260507040014 | 34 | 336 | 0.0 | 0.0 | 0.00 | 0.00 | 0.00 | 63 | 1015.0 |
| 20260507035507 | 34 | 336 | 0.0 | 0.0 | 0.00 | 0.00 | 0.00 | 63 | 1015.0 |
| 20260507035003 | 35 | 336 | 0.0 | 0.0 | 0.00 | 0.00 | 0.00 | 62 | 1015.0 |
| 20260507034518 | 35 | 336 | 0.0 | 0.0 | 0.00 | 0.00 | 0.00 | 62 | 1015.0 |
| 20260507034009 | 35 | 336 | 0.0 | 0.0 | 0.00 | 0.00 | 0.00 | 62 | 1015.1 |
| 20260507033508 | 35 | 336 | 0.0 | 0.0 | 0.00 | 0.00 | 0.00 | 61 | 1015.1 |
| 20260507033020 | 35 | 336 | 0.0 | 0.0 | 0.00 | 0.00 | 0.00 | 61 | 1015.2 |
| 20260507032509 | 36 | 336 | 0.0 | 0.0 | 0.00 | 0.00 | 0.00 | 61 | 1015.2 |
| 20260507032013 | 36 | 336 | 0.0 | 0.0 | 0.00 | 0.00 | 0.00 | 60 | 1015.2 |
| 20260507031512 | 36 | 336 | 0.0 | 0.0 | 0.00 | 0.00 | 0.00 | 59 | 1015.2 |
| 20260507031004 | 37 | 336 | 0.0 | 0.0 | 0.00 | 0.00 | 0.00 | 59 | 1015.2 |
| 20260507030506 | 37 | 336 | 0.0 | 0.0 | 0.00 | 0.00 | 0.00 | 59 | 1015.3 |
| 20260507030008 | 37 | 336 | 0.0 | 0.0 | 0.00 | 0.00 | 0.00 | 58 | 1015.3 |
| 20260507025506 | 37 | 336 | 0.0 | 0.0 | 0.00 | 0.00 | 0.00 | 58 | 1015.3 |
| 20260507025006 | 38 | 336 | 0.0 | 0.0 | 0.00 | 0.00 | 0.00 | 58 | 1015.3 |
| 20260507024517 | 38 | 336 | 0.0 | 0.0 | 0.00 | 0.00 | 0.00 | 57 | 1015.4 |
| 20260507024006 | 38 | 336 | 0.0 | 0.0 | 0.00 | 0.00 | 0.00 | 57 | 1015.4 |
| 20260507023507 | 39 | 336 | 0.0 | 0.0 | 0.00 | 0.00 | 0.00 | 57 | 1015.5 |
| 20260507023021 | 39 | 336 | 0.0 | 0.0 | 0.00 | 0.00 | 0.00 | 56 | 1015.4 |
| 20260507022509 | 39 | 336 | 0.0 | 0.0 | 0.00 | 0.00 | 0.00 | 55 | 1015.3 |
| 20260507022007 | 40 | 336 | 0.0 | 0.0 | 0.00 | 0.00 | 0.00 | 54 | 1015.3 |
| 20260507021522 | 40 | 336 | 0.0 | 0.0 | 0.00 | 0.00 | 0.00 | 54 | 1015.4 |
| 20260507021008 | 41 | 336 | 0.0 | 0.0 | 0.00 | 0.00 | 0.00 | 53 | 1015.3 |
| 20260507020512 | 41 | 336 | 0.0 | 0.0 | 0.00 | 0.00 | 0.00 | 52 | 1015.3 |
| 20260507020015 | 41 | 336 | 0.0 | 0.0 | 0.00 | 0.00 | 0.00 | 52 | 1015.3 |
| 20260507015507 | 42 | 336 | 0.0 | 0.0 | 0.00 | 0.00 | 0.00 | 51 | 1015.4 |
| 20260507015004 | 42 | 336 | 0.0 | 1.0 | 0.00 | 0.00 | 0.00 | 51 | 1015.4 |
| 20260507014510 | 42 | 336 | 0.0 | 1.0 | 0.00 | 0.00 | 0.00 | 50 | 1015.4 |
| 20260507014006 | 43 | 336 | 0.0 | 1.0 | 0.00 | 0.00 | 0.00 | 50 | 1015.3 |
| 20260507013507 | 43 | 335 | 0.0 | 2.0 | 0.00 | 0.00 | 0.00 | 50 | 1015.3 |
| 20260507013016 | 43 | 335 | 0.0 | 3.0 | 0.00 | 0.00 | 0.00 | 50 | 1015.3 |
| 20260507012507 | 43 | 338 | 0.0 | 3.0 | 0.00 | 0.00 | 0.00 | 49 | 1015.2 |
| 20260507012010 | 44 | 349 | 0.0 | 5.0 | 0.00 | 0.00 | 0.00 | 49 | 1015.2 |
| 20260507011523 | 44 | 349 | 0.0 | 5.0 | 0.00 | 0.00 | 0.00 | 49 | 1015.2 |
| 20260507011010 | 44 | 333 | 0.0 | 4.0 | 0.00 | 0.00 | 0.00 | 49 | 1015.2 |
| 20260507010506 | 44 | 5 | 0.0 | 4.0 | 0.00 | 0.00 | 0.00 | 49 | 1015.2 |
| 20260507010024 | 44 | 344 | 0.0 | 3.0 | 0.00 | 0.00 | 0.00 | 49 | 1015.2 |
| 20260507005511 | 44 | 329 | 0.0 | 3.0 | 0.00 | 0.00 | 0.00 | 49 | 1015.2 |
| 20260507005008 | 44 | 328 | 0.0 | 4.0 | 0.00 | 0.00 | 0.00 | 48 | 1015.2 |
| 20260507004521 | 45 | 323 | 1.0 | 4.0 | 0.00 | 0.00 | 0.00 | 48 | 1015.1 |
| 20260507004015 | 45 | 329 | 2.0 | 4.0 | 0.00 | 0.00 | 0.00 | 48 | 1015.1 |
| 20260507003512 | 45 | 346 | 0.0 | 4.0 | 0.00 | 0.00 | 0.00 | 47 | 1015.1 |
| 20260507003012 | 45 | 309 | 1.0 | 5.0 | 0.00 | 0.00 | 0.00 | 47 | 1015.1 |
| 20260507002508 | 45 | 321 | 1.0 | 5.0 | 0.00 | 0.00 | 0.00 | 47 | 1015.1 |
| 20260507002009 | 45 | 340 | 0.0 | 4.0 | 0.00 | 0.00 | 0.00 | 46 | 1015.1 |
| 20260507001521 | 46 | 331 | 1.0 | 4.0 | 0.00 | 0.00 | 0.00 | 46 | 1015.1 |
| 20260507001012 | 46 | 304 | 0.0 | 5.0 | 0.00 | 0.00 | 0.00 | 46 | 1015.1 |
| 20260507000508 | 46 | 294 | 1.0 | 5.0 | 0.00 | 0.00 | 0.00 | 46 | 1015.1 |
| 20260507000032 | 46 | 157 | 0.0 | 6.0 | 0.00 | 0.00 | 0.00 | 46 | 1015.1 |
| 20260506235509 | 46 | 317 | 1.0 | 8.0 | 0.00 | 0.00 | 0.00 | 44 | 1015.2 |
| 20260506235007 | 46 | 316 | 1.0 | 10.0 | 0.00 | 0.00 | 0.00 | 44 | 1015.2 |
| 20260506234524 | 47 | 328 | 2.0 | 10.0 | 0.00 | 0.00 | 0.00 | 45 | 1015.2 |
| 20260506234009 | 47 | 11 | 3.0 | 9.0 | 0.00 | 0.00 | 0.00 | 44 | 1015.2 |
| 20260506233510 | 47 | 226 | 0.0 | 11.0 | 0.00 | 0.00 | 0.00 | 46 | 1015.2 |
| 20260506233024 | 47 | 310 | 2.0 | 11.0 | 0.00 | 0.00 | 0.00 | 45 | 1015.1 |
| 20260506232510 | 47 | 309 | 2.0 | 8.0 | 0.00 | 0.00 | 0.00 | 46 | 1015.1 |
| 20260506232002 | 47 | 19 | 1.0 | 7.0 | 0.00 | 0.00 | 0.00 | 45 | 1015.1 |
| 20260506231500 | 46 | 326 | 1.0 | 8.0 | 0.00 | 0.00 | 0.00 | 46 | 1015.1 |
| 20260506231003 | 46 | 329 | 2.0 | 8.0 | 0.00 | 0.00 | 0.00 | 45 | 1015.1 |
| 20260506230504 | 46 | 352 | 2.0 | 8.0 | 0.00 | 0.00 | 0.00 | 45 | 1015.1 |
| 20260506230004 | 47 | 319 | 2.0 | 7.0 | 0.00 | 0.00 | 0.00 | 45 | 1015.1 |
| 20260506225504 | 47 | 336 | 1.0 | 7.0 | 0.00 | 0.00 | 0.00 | 44 | 1015.2 |
| 20260506225003 | 47 | 271 | 1.0 | 11.0 | 0.00 | 0.00 | 0.00 | 44 | 1015.2 |
| 20260506224501 | 47 | 283 | 2.0 | 11.0 | 0.00 | 0.00 | 0.00 | 45 | 1015.3 |
| 20260506224004 | 47 | 160 | 1.0 | 4.0 | 0.00 | 0.00 | 0.00 | 46 | 1015.3 |
| 20260506223504 | 47 | 255 | 0.0 | 9.0 | 0.00 | 0.00 | 0.00 | 46 | 1015.3 |
| 20260506223001 | 47 | 227 | 0.0 | 9.0 | 0.00 | 0.00 | 0.00 | 46 | 1015.4 |
| 20260506222503 | 46 | 322 | 1.0 | 9.0 | 0.00 | 0.00 | 0.00 | 46 | 1015.4 |
| 20260506222003 | 46 | 195 | 1.0 | 9.0 | 0.00 | 0.00 | 0.00 | 46 | 1015.5 |
| 20260506221511 | 46 | 225 | 2.0 | 9.0 | 0.00 | 0.00 | 0.00 | 45 | 1015.5 |
| 20260506221007 | 46 | 309 | 3.0 | 9.0 | 0.00 | 0.00 | 0.00 | 46 | 1015.5 |
| 20260506220507 | 46 | 246 | 2.0 | 7.0 | 0.00 | 0.00 | 0.00 | 46 | 1015.6 |
| 20260506220005 | 46 | 246 | 2.0 | 8.0 | 0.00 | 0.00 | 0.00 | 47 | 1015.6 |
| 20260506215502 | 46 | 273 | 1.0 | 9.0 | 0.00 | 0.00 | 0.00 | 48 | 1015.6 |
| 20260506215004 | 46 | 331 | 3.0 | 10.0 | 0.00 | 0.00 | 0.00 | 47 | 1015.6 |
| 20260506214505 | 45 | 322 | 1.0 | 10.0 | 0.00 | 0.00 | 0.00 | 48 | 1015.6 |
| 20260506214004 | 45 | 5 | 1.0 | 10.0 | 0.00 | 0.00 | 0.00 | 49 | 1015.7 |
| 20260506213502 | 45 | 294 | 3.0 | 10.0 | 0.00 | 0.00 | 0.00 | 47 | 1015.7 |
| 20260506213001 | 45 | 186 | 1.0 | 5.0 | 0.00 | 0.00 | 0.00 | 48 | 1015.8 |
| 20260506212505 | 45 | 317 | 0.0 | 6.0 | 0.00 | 0.00 | 0.00 | 48 | 1015.9 |
| 20260506212007 | 45 | 343 | 0.0 | 8.0 | 0.00 | 0.00 | 0.00 | 49 | 1015.9 |
| 20260506211508 | 45 | 300 | 3.0 | 8.0 | 0.00 | 0.00 | 0.00 | 48 | 1015.9 |
| 20260506211005 | 44 | 319 | 1.0 | 7.0 | 0.00 | 0.00 | 0.00 | 49 | 1016.0 |
| 20260506210506 | 44 | 310 | 1.0 | 9.0 | 0.00 | 0.00 | 0.00 | 48 | 1016.1 |
| 20260506210015 | 44 | 250 | 1.0 | 9.0 | 0.00 | 0.00 | 0.00 | 49 | 1016.1 |
| 20260506205503 | 44 | 260 | 1.0 | 9.0 | 0.00 | 0.00 | 0.00 | 49 | 1016.2 |
| 20260506205003 | 44 | 96 | 1.0 | 9.0 | 0.00 | 0.00 | 0.00 | 49 | 1016.2 |
| 20260506204504 | 44 | 310 | 2.0 | 9.0 | 0.00 | 0.00 | 0.00 | 48 | 1016.2 |
| 20260506204002 | 44 | 349 | 2.0 | 9.0 | 0.00 | 0.00 | 0.00 | 49 | 1016.2 |
| 20260506203506 | 44 | 298 | 2.0 | 9.0 | 0.00 | 0.00 | 0.00 | 48 | 1016.2 |
| 20260506203004 | 44 | 360 | 2.0 | 9.0 | 0.00 | 0.00 | 0.00 | 48 | 1016.2 |
| 20260506202504 | 44 | 138 | 1.0 | 6.0 | 0.00 | 0.00 | 0.00 | 48 | 1016.3 |
| 20260506202004 | 44 | 254 | 2.0 | 6.0 | 0.00 | 0.00 | 0.00 | 49 | 1016.3 |
| 20260506201507 | 44 | 220 | 1.0 | 7.0 | 0.00 | 0.00 | 0.00 | 49 | 1016.3 |
| 20260506201008 | 44 | 21 | 1.0 | 7.0 | 0.00 | 0.00 | 0.00 | 48 | 1016.3 |
| 20260506200505 | 43 | 225 | 1.0 | 6.0 | 0.00 | 0.00 | 0.00 | 49 | 1016.3 |
| 20260506200005 | 43 | 13 | 2.0 | 6.0 | 0.00 | 0.00 | 0.00 | 49 | 1016.3 |
| 20260506195505 | 43 | 338 | 2.0 | 9.0 | 0.00 | 0.00 | 0.00 | 49 | 1016.3 |
| 20260506195006 | 43 | 340 | 3.0 | 9.0 | 0.00 | 0.00 | 0.00 | 49 | 1016.4 |
| 20260506194502 | 43 | 248 | 1.0 | 7.0 | 0.00 | 0.00 | 0.00 | 49 | 1016.3 |
| 20260506194003 | 43 | 285 | 2.0 | 10.0 | 0.00 | 0.00 | 0.00 | 49 | 1016.4 |
| 20260506193506 | 43 | 308 | 2.0 | 10.0 | 0.00 | 0.00 | 0.00 | 48 | 1016.3 |
| 20260506193001 | 43 | 162 | 2.0 | 8.0 | 0.00 | 0.00 | 0.00 | 49 | 1016.3 |
| 20260506192508 | 43 | 264 | 2.0 | 8.0 | 0.00 | 0.00 | 0.00 | 49 | 1016.4 |
| 20260506192006 | 43 | 229 | 1.0 | 5.0 | 0.00 | 0.00 | 0.00 | 48 | 1016.4 |
| 20260506191506 | 43 | 209 | 2.0 | 6.0 | 0.00 | 0.00 | 0.00 | 48 | 1016.4 |
| 20260506191004 | 43 | 247 | 1.0 | 14.0 | 0.00 | 0.00 | 0.00 | 48 | 1016.4 |
| 20260506190505 | 43 | 236 | 2.0 | 14.0 | 0.00 | 0.00 | 0.00 | 48 | 1016.4 |
| 20260506190008 | 43 | 254 | 1.0 | 6.0 | 0.00 | 0.00 | 0.00 | 49 | 1016.4 |
| 20260506185507 | 43 | 157 | 1.0 | 8.0 | 0.00 | 0.00 | 0.00 | 49 | 1016.4 |
| 20260506185005 | 43 | 274 | 1.0 | 9.0 | 0.00 | 0.00 | 0.00 | 48 | 1016.5 |
| 20260506184513 | 43 | 54 | 2.0 | 9.0 | 0.00 | 0.00 | 0.00 | 48 | 1016.4 |
| 20260506184008 | 43 | 236 | 1.0 | 5.0 | 0.00 | 0.00 | 0.00 | 48 | 1016.6 |
| 20260506183502 | 43 | 234 | 2.0 | 8.0 | 0.00 | 0.00 | 0.00 | 49 | 1016.5 |
| 20260506183008 | 43 | 315 | 1.0 | 8.0 | 0.00 | 0.00 | 0.00 | 49 | 1016.4 |
| 20260506182506 | 43 | 281 | 2.0 | 7.0 | 0.00 | 0.00 | 0.00 | 48 | 1016.5 |
| 20260506182008 | 43 | 206 | 1.0 | 9.0 | 0.00 | 0.00 | 0.00 | 49 | 1016.4 |
| 20260506181505 | 43 | 296 | 1.0 | 9.0 | 0.00 | 0.00 | 0.00 | 49 | 1016.4 |
| 20260506181003 | 43 | 259 | 2.0 | 12.0 | 0.00 | 0.00 | 0.00 | 49 | 1016.4 |
| 20260506180503 | 43 | 62 | 0.0 | 12.0 | 0.00 | 0.00 | 0.00 | 49 | 1016.4 |
| 20260506180008 | 43 | 333 | 2.0 | 12.0 | 0.00 | 0.00 | 0.00 | 50 | 1016.5 |
| 20260506175504 | 43 | 292 | 4.0 | 11.0 | 0.00 | 0.00 | 0.00 | 49 | 1016.5 |
| 20260506175005 | 43 | 177 | 3.0 | 10.0 | 0.00 | 0.00 | 0.00 | 50 | 1016.5 |
| 20260506174511 | 43 | 22 | 1.0 | 5.0 | 0.00 | 0.00 | 0.00 | 50 | 1016.6 |
| 20260506174003 | 42 | 342 | 1.0 | 5.0 | 0.00 | 0.00 | 0.00 | 50 | 1016.6 |
| 20260506173505 | 42 | 207 | 1.0 | 8.0 | 0.00 | 0.00 | 0.00 | 50 | 1016.6 |
| 20260506173016 | 42 | 253 | 1.0 | 9.0 | 0.00 | 0.00 | 0.00 | 50 | 1016.6 |
| 20260506172507 | 43 | 13 | 2.0 | 9.0 | 0.00 | 0.00 | 0.00 | 50 | 1016.6 |
| 20260506172006 | 43 | 38 | 1.0 | 11.0 | 0.00 | 0.00 | 0.00 | 50 | 1016.7 |
| 20260506171513 | 43 | 329 | 2.0 | 11.0 | 0.00 | 0.00 | 0.00 | 50 | 1016.7 |
| 20260506171006 | 42 | 319 | 1.0 | 6.0 | 0.00 | 0.00 | 0.00 | 50 | 1016.8 |
| 20260506170503 | 42 | 98 | 1.0 | 7.0 | 0.00 | 0.00 | 0.00 | 50 | 1016.8 |
| 20260506170009 | 42 | 301 | 1.0 | 7.0 | 0.00 | 0.00 | 0.00 | 50 | 1016.8 |